Search your local weather  

 

Hazardous Weather Conditions

No active alerts for LOS ANGELES, CALIFORNIA

Current Conditions: LOS ANGELES, CALIFORNIA

Fair


50.0 F

Last Updated on Jan 23 2020, 12:51 am PST
Humidity: 86%
Wind Speed: NE 4.6 mph
Barometer 30.14 in
Dewpoint: 46.0 F
Visibility: 7.00 mi
Precip: --
Heat Index: NA
Wind Chill: 48 F
Current conditions at:

Santa Monica, Santa Monica Municipal Airport, CA (KSMO)

Lat: 34.01583 Lon: -118.45139

Local Radar Image active severe weather and emergency alerts image image weather storm and storm spotter reports image weather observation monitoring service image
Local
Radar
Active
Alerts
Storm Reports Weather
Monitoring

5 Day Forecast for LOS ANGELES, CALIFORNIA (90001)

Thursday

Mostly Sunny

High 75 °F
Thursday
Night
Partly Cloudy

Low 54 °F
Friday

Partly Sunny

High 75 °F
Friday
Night
Partly Cloudy

Low 54 °F
Saturday

Partly Sunny

High 74 °F
Saturday
Night
Partly Cloudy

Low 55 °F
Sunday

Slight Chance of Showers
High 69 °F
Sunday
Night
Partly Cloudy

Low 53 °F
Monday

Mostly Sunny

High 69 °F

Sign-up For Email & Text Message Weather Alert Notification Services



Advertise Here

Observation History for LOS ANGELES, CALIFORNIA


Time Wind
(mph)
Vis
(mi)
Weather Precip (in) Temperature (F) Relative
Humidity
Wind
Chill
(F)
Heat
Index
(F)
Pressure
Air Dwpt altimeter
(in)
sea level
(mb)
12:51 am PST NE 4.6 7.00 Fair -- 50.0 46.0 86% 48 NA 30.14 1020.6
11:51 pm PST N 3.5 10.00 Fair -- 52.0 46.9 83% NA NA 30.16 1021.3
10:51 pm PST N 0.0 10.00 Fair -- 52.0 46.9 83% NA NA 30.16 1021.3
9:51 pm PST N 0.0 10.00 Fair -- 53.0 46.9 80% NA NA 30.16 1021.2
8:51 pm PST NE 3.5 9.00 Fair -- 54.0 48.9 83% NA NA 30.15 1020.7
7:51 pm PST N 0.0 10.00 Fair -- 54.0 50.0 87% NA NA 30.14 1020.5
6:51 pm PST N 0.0 10.00 Fair -- 56.0 51.1 84% NA NA 30.14 1020.5
5:51 pm PST SW 3.5 10.00 Fair -- 57.0 50.0 78% NA NA 30.13 1020.1
4:51 pm PST SW 5.8 10.00 Fair -- 58.0 50.0 75% 57 NA 30.12 1020.0
3:51 pm PST SW 5.8 10.00 Fair -- 60.0 46.9 62% 60 NA 30.12 1019.8
2:51 pm PST SW 4.6 10.00 Fair -- 60.0 48.0 65% 60 NA 30.11 1019.6
11:51 am PST SW 6.9 10.00 A Few Clouds -- 59.0 48.9 69% 58 NA 30.16 1021.2
12:51 pm PST SW 8.1 10.00 Fair -- 60.0 48.9 67% 59 NA 30.14 1020.5
11:51 am PST 3.5 9.00 Fair -- 59.0 48.9 69% NA NA 30.17 1021.4
10:51 am PST N 0.0 10.00 Fair -- 60.0 48.0 65% NA NA 30.20 1022.4
9:51 am PST E 5.8 10.00 Fair -- 58.0 48.9 72% 57 NA 30.21 1022.8
8:51 am PST 4.6 9.00 Fair -- 55.0 48.0 77% 54 NA 30.21 1022.8
7:51 am PST N 0.0 10.00 Fair -- 50.0 45.0 83% NA NA 30.20 1022.5
6:51 am PST NE 3.5 10.00 Mostly Cloudy -- 49.0 45.0 86% NA NA 30.18 1022.0
5:51 am PST NE 3.5 10.00 Fair -- 48.0 44.1 86% NA NA 30.17 1021.6
4:51 am PST NE 3.5 10.00 Fair -- 48.0 44.1 86% NA NA 30.17 1021.6
3:51 am PST N 3.5 10.00 Fair -- 49.0 45.0 86% NA NA 30.19 1022.1
2:51 am PST NE 3.5 10.00 Fair -- 49.0 44.1 83% NA NA 30.19 1022.2

Regional Weather Observation

Los Angeles / USC Campus Downtown, CA (KCQT)

Fair
54.0 F

Burbank - Bob Hope Airport, CA (KBUR)

Fair
49.0 F

Los Angeles, Whiteman Airport, CA (KWHP)

Mostly Cloudy
54.0 F

El Monte, CA (KEMT)

A Few Clouds
57.0 F

Los Angeles, Los Angeles International Airport, CA (KLAX)

A Few Clouds
56.0 F

Hawthorne, Hawthorne Municipal Airport, CA (KHHR)

Fair
53.0 F

Advertise Here


Advertise Here